Location: Dvur Kralove nad Labem
(50.4330°N, 15.8170°E)
Time: 15:02:06
(UTC+02:00)

ISS - Pass Details

Date: 20 May 2018
Orbit: 402 x 407 km, 51.6° (Epoch: 24 May)

Event Time Altitude Azimuth Distance (km) Brightness Sun altitude
Exits shadow 01:38:52 13° 276° (W) 1,274 -1.4 -18.9°
Maximum altitude 01:41:40 68° 360° (N) 437 -3.6 -18.8°
Drops below altitude 10° 01:44:56 10° 84° (E) 1,457 -0.8 -18.7°
Sets 01:47:01 0° 87° (E) 2,317 0.2 -18.6°
